| time (UTC) | temp C | wind direction | speed KPH | gust KPH | rain 1hr cm | rain 24hr cm | rain mn cm | humidity % | barometer mb |
| 20260505140623 | 10 | 177 | 1.6 | 1.6 | 0.00 | 0.00 | 0.00 | 58 | 995.1 |
| 20260505140120 | 11 | 186 | 4.8 | 8.0 | 0.00 | 0.00 | 0.00 | 58 | 995.0 |
| 20260505125036 | 11 | 192 | 1.6 | 4.8 | 0.00 | 0.00 | 0.00 | 60 | 993.8 |
| 20260505124533 | 11 | 172 | 4.8 | 4.8 | 0.00 | 0.00 | 0.00 | 59 | 994.0 |
| 20260505124029 | 11 | 189 | 3.2 | 3.2 | 0.00 | 0.00 | 0.00 | 60 | 993.7 |
| 20260505123526 | 11 | 201 | 1.6 | 3.2 | 0.00 | 0.00 | 0.00 | 62 | 993.7 |
| 20260505123022 | 11 | 181 | 1.6 | 3.2 | 0.00 | 0.00 | 0.00 | 65 | 993.7 |
| 20260505122519 | 11 | 195 | 1.6 | 1.6 | 0.00 | 0.00 | 0.00 | 65 | 993.7 |
| 20260505122016 | 11 | 181 | 1.6 | 3.2 | 0.00 | 0.00 | 0.00 | 65 | 993.7 |
| 20260505121512 | 11 | 180 | 4.8 | 4.8 | 0.00 | 0.00 | 0.00 | 65 | 994.0 |
| 20260505121009 | 11 | 186 | 1.6 | 1.6 | 0.00 | 0.00 | 0.00 | 66 | 993.7 |
| 20260505120506 | 11 | 190 | 6.4 | 8.0 | 0.00 | 0.00 | 0.00 | 66 | 993.7 |
| 20260505120006 | 11 | 187 | 3.2 | 3.2 | 0.00 | 0.00 | 0.00 | 68 | 994.0 |
| 20260505115501 | 11 | 187 | 1.6 | 1.6 | 0.00 | 0.00 | 0.00 | 68 | 993.8 |
| 20260505114959 | 11 | 183 | 0.0 | 0.0 | 0.00 | 0.00 | 0.00 | 67 | 994.1 |
| 20260505114455 | 11 | 184 | 0.0 | 1.6 | 0.00 | 0.00 | 0.00 | 67 | 994.1 |
| 20260505113952 | 11 | 185 | 0.0 | 0.0 | 0.00 | 0.00 | 0.00 | 66 | 994.0 |
| 20260505113448 | 11 | 186 | 1.6 | 1.6 | 0.00 | 0.00 | 0.00 | 65 | 994.1 |
| 20260505112943 | 11 | 185 | 0.0 | 0.0 | 0.00 | 0.00 | 0.00 | 61 | 994.1 |
| 20260505112441 | 11 | 185 | 0.0 | 0.0 | 0.00 | 0.00 | 0.00 | 61 | 994.2 |
| 20260505111938 | 11 | 185 | 1.6 | 1.6 | 0.00 | 0.00 | 0.00 | 63 | 994.2 |
| 20260505111432 | 11 | 184 | 1.6 | 1.6 | 0.00 | 0.00 | 0.00 | 62 | 994.2 |
| 20260505110929 | 11 | 177 | 0.0 | 0.0 | 0.00 | 0.00 | 0.00 | 64 | 994.1 |
| 20260505110425 | 11 | 174 | 3.2 | 3.2 | 0.00 | 0.00 | 0.00 | 65 | 994.2 |
| 20260505101856 | 12 | 175 | 0.0 | 1.6 | 0.00 | 0.00 | 0.00 | 57 | 993.8 |
| 20260505101351 | 12 | 174 | 1.6 | 1.6 | 0.00 | 0.00 | 0.00 | 57 | 994.1 |
| 20260505100847 | 12 | 199 | 1.6 | 1.6 | 0.00 | 0.00 | 0.00 | 57 | 994.0 |
| 20260505100344 | 12 | 185 | 0.0 | 1.6 | 0.00 | 0.00 | 0.00 | 58 | 994.2 |
| 20260505095839 | 12 | 194 | 3.2 | 4.8 | 0.00 | 0.00 | 0.00 | 59 | 994.1 |
| 20260505095337 | 12 | 169 | 3.2 | 4.8 | 0.00 | 0.00 | 0.00 | 60 | 994.1 |
| 20260505094833 | 12 | 189 | 3.2 | 3.2 | 0.00 | 0.00 | 0.00 | 60 | 994.2 |
| 20260505094330 | 12 | 172 | 1.6 | 3.2 | 0.00 | 0.00 | 0.00 | 59 | 994.2 |
| 20260505093825 | 12 | 186 | 1.6 | 1.6 | 0.00 | 0.00 | 0.00 | 58 | 994.2 |
| 20260505093324 | 12 | 166 | 1.6 | 3.2 | 0.00 | 0.00 | 0.00 | 59 | 994.1 |
| 20260505092820 | 12 | 177 | 1.6 | 1.6 | 0.00 | 0.00 | 0.00 | 57 | 994.0 |
| 20260505092319 | 12 | 185 | 1.6 | 3.2 | 0.00 | 0.00 | 0.00 | 58 | 994.2 |
| 20260505091815 | 12 | 181 | 1.6 | 1.6 | 0.00 | 0.00 | 0.00 | 60 | 994.1 |
| 20260505091314 | 12 | 180 | 1.6 | 1.6 | 0.00 | 0.00 | 0.00 | 60 | 994.2 |
| 20260505090811 | 12 | 185 | 0.0 | 1.6 | 0.00 | 0.00 | 0.00 | 60 | 994.1 |
| 20260505090309 | 12 | 196 | 1.6 | 3.2 | 0.00 | 0.00 | 0.00 | 60 | 994.2 |
| 20260505085806 | 12 | 184 | 1.6 | 1.6 | 0.00 | 0.00 | 0.00 | 61 | 994.1 |
| 20260505085305 | 12 | 183 | 0.0 | 0.0 | 0.00 | 0.00 | 0.00 | 61 | 994.2 |
| 20260505084801 | 12 | 187 | 0.0 | 0.0 | 0.00 | 0.00 | 0.00 | 62 | 994.3 |
| 20260505084300 | 12 | 196 | 0.0 | 1.6 | 0.00 | 0.00 | 0.00 | 61 | 994.2 |
| 20260505083757 | 12 | 184 | 3.2 | 4.8 | 0.00 | 0.00 | 0.00 | 61 | 994.2 |
| 20260505083253 | 12 | 222 | 4.8 | 8.0 | 0.00 | 0.00 | 0.00 | 61 | 994.2 |
| 20260505082749 | 12 | 178 | 1.6 | 3.2 | 0.00 | 0.00 | 0.00 | 61 | 994.3 |
| 20260505082247 | 12 | 184 | 1.6 | 1.6 | 0.00 | 0.00 | 0.00 | 62 | 994.3 |
| 20260505081743 | 12 | 183 | 1.6 | 3.2 | 0.00 | 0.00 | 0.00 | 62 | 994.5 |
| 20260505081240 | 12 | 190 | 1.6 | 4.8 | 0.00 | 0.00 | 0.00 | 63 | 994.4 |
| 20260505080737 | 12 | 190 | 1.6 | 3.2 | 0.00 | 0.00 | 0.00 | 63 | 994.6 |
| 20260505080232 | 12 | 178 | 4.8 | 4.8 | 0.00 | 0.00 | 0.00 | 63 | 994.4 |
| 20260505075728 | 12 | 213 | 4.8 | 4.8 | 0.00 | 0.00 | 0.00 | 61 | 994.4 |
| 20260505075226 | 12 | 182 | 4.8 | 8.0 | 0.00 | 0.00 | 0.00 | 57 | 994.5 |
| 20260505074723 | 12 | 191 | 3.2 | 3.2 | 0.00 | 0.00 | 0.00 | 57 | 994.6 |
| 20260505074220 | 12 | 191 | 3.2 | 4.8 | 0.00 | 0.00 | 0.00 | 56 | 994.4 |
| 20260505073718 | 12 | 185 | 0.0 | 1.6 | 0.00 | 0.00 | 0.00 | 56 | 994.5 |
| 20260505073215 | 12 | 188 | 1.6 | 3.2 | 0.00 | 0.00 | 0.00 | 55 | 994.3 |
| 20260505072711 | 12 | 220 | 3.2 | 3.2 | 0.00 | 0.00 | 0.00 | 55 | 994.5 |
| 20260505072208 | 12 | 188 | 4.8 | 4.8 | 0.00 | 0.00 | 0.00 | 54 | 994.4 |
| 20260505071703 | 13 | 186 | 6.4 | 8.0 | 0.00 | 0.00 | 0.00 | 53 | 994.3 |
| 20260505071201 | 13 | 250 | 3.2 | 8.0 | 0.00 | 0.00 | 0.00 | 52 | 994.3 |
| 20260505070658 | 13 | 159 | 4.8 | 4.8 | 0.00 | 0.00 | 0.00 | 52 | 994.4 |
| 20260505070154 | 13 | 212 | 8.0 | 12.9 | 0.00 | 0.00 | 0.00 | 51 | 994.4 |
| 20260505065650 | 13 | 210 | 4.8 | 8.0 | 0.00 | 0.00 | 0.00 | 51 | 994.4 |
| 20260505065147 | 13 | 200 | 6.4 | 11.3 | 0.00 | 0.00 | 0.00 | 51 | 994.3 |
| 20260505064644 | 13 | 177 | 8.0 | 9.7 | 0.00 | 0.00 | 0.00 | 52 | 994.4 |
| 20260505064142 | 12 | 226 | 4.8 | 4.8 | 0.00 | 0.00 | 0.00 | 53 | 994.5 |
| 20260505063640 | 12 | 195 | 8.0 | 11.3 | 0.00 | 0.00 | 0.00 | 55 | 994.3 |
| 20260505063136 | 12 | 173 | 6.4 | 11.3 | 0.00 | 0.00 | 0.00 | 56 | 994.3 |
| 20260505062632 | 12 | 178 | 8.0 | 11.3 | 0.00 | 0.00 | 0.00 | 57 | 994.3 |
| 20260505062129 | 12 | 124 | 6.4 | 9.7 | 0.00 | 0.00 | 0.00 | 59 | 994.3 |
| 20260505061626 | 12 | 219 | 3.2 | 4.8 | 0.00 | 0.00 | 0.00 | 60 | 994.4 |
| 20260505061125 | 12 | 175 | 4.8 | 8.0 | 0.00 | 0.00 | 0.00 | 60 | 994.4 |
| 20260505060622 | 12 | 100 | 8.0 | 12.9 | 0.00 | 0.00 | 0.00 | 59 | 994.4 |
| 20260505060118 | 12 | 190 | 6.4 | 12.9 | 0.00 | 0.00 | 0.00 | 59 | 994.5 |
| 20260505055614 | 12 | 162 | 4.8 | 8.0 | 0.00 | 0.00 | 0.00 | 59 | 994.5 |
| 20260505055110 | 12 | 179 | 8.0 | 12.9 | 0.00 | 0.00 | 0.00 | 58 | 994.5 |
| 20260505054608 | 12 | 209 | 8.0 | 9.7 | 0.00 | 0.00 | 0.00 | 58 | 994.6 |
| 20260505054106 | 12 | 179 | 3.2 | 4.8 | 0.00 | 0.00 | 0.00 | 57 | 994.5 |
| 20260505053603 | 13 | 128 | 11.3 | 16.1 | 0.00 | 0.00 | 0.00 | 56 | 994.3 |
| 20260505053059 | 13 | 201 | 6.4 | 8.0 | 0.00 | 0.00 | 0.00 | 55 | 994.3 |
| 20260505052556 | 13 | 171 | 9.7 | 14.5 | 0.00 | 0.00 | 0.00 | 54 | 994.0 |
| 20260505052054 | 13 | 190 | 6.4 | 8.0 | 0.00 | 0.00 | 0.00 | 54 | 994.0 |
| 20260505051550 | 13 | 103 | 8.0 | 9.7 | 0.00 | 0.00 | 0.00 | 54 | 994.0 |
| 20260505051048 | 13 | 183 | 9.7 | 11.3 | 0.00 | 0.00 | 0.00 | 54 | 994.0 |
| 20260505050546 | 13 | 187 | 4.8 | 4.8 | 0.00 | 0.00 | 0.00 | 55 | 993.8 |
| 20260505041514 | 15 | 191 | 3.2 | 4.8 | 0.00 | 0.00 | 0.00 | 41 | 993.2 |
| 20260505041012 | 15 | 155 | 4.8 | 8.0 | 0.00 | 0.00 | 0.00 | 41 | 993.3 |
| 20260505040509 | 15 | 169 | 6.4 | 9.7 | 0.00 | 0.00 | 0.00 | 41 | 993.4 |
| 20260505040006 | 15 | 178 | 8.0 | 9.7 | 0.00 | 0.00 | 0.00 | 41 | 993.3 |
| 20260505035501 | 15 | 190 | 3.2 | 3.2 | 0.00 | 0.00 | 0.00 | 41 | 993.2 |
| 20260505034959 | 15 | 193 | 1.6 | 1.6 | 0.00 | 0.00 | 0.00 | 42 | 993.3 |
| 20260505034455 | 15 | 184 | 0.0 | 0.0 | 0.00 | 0.00 | 0.00 | 43 | 993.3 |
| 20260505033952 | 15 | 185 | 0.0 | 0.0 | 0.00 | 0.00 | 0.00 | 44 | 993.2 |
| 20260505033449 | 15 | 183 | 3.2 | 3.2 | 0.00 | 0.00 | 0.00 | 43 | 993.2 |
| 20260505032947 | 15 | 180 | 3.2 | 3.2 | 0.00 | 0.00 | 0.00 | 44 | 992.9 |
| 20260505032444 | 15 | 182 | 3.2 | 3.2 | 0.00 | 0.00 | 0.00 | 44 | 992.9 |
| 20260505031940 | 15 | 193 | 1.6 | 1.6 | 0.00 | 0.00 | 0.00 | 44 | 993.2 |
| 20260505031438 | 16 | 183 | 1.6 | 3.2 | 0.00 | 0.00 | 0.00 | 44 | 992.8 |
| 20260505030935 | 16 | 186 | 4.8 | 8.0 | 0.00 | 0.00 | 0.00 | 45 | 992.8 |
| 20260505030430 | 16 | 194 | 3.2 | 3.2 | 0.00 | 0.00 | 0.00 | 45 | 992.8 |
| 20260505025926 | 16 | 181 | 3.2 | 3.2 | 0.00 | 0.00 | 0.00 | 43 | 992.8 |
| 20260505025423 | 16 | 181 | 3.2 | 3.2 | 0.00 | 0.00 | 0.00 | 42 | 992.9 |
| 20260505024922 | 16 | 178 | 1.6 | 1.6 | 0.00 | 0.00 | 0.00 | 42 | 992.8 |
| 20260505024419 | 16 | 185 | 4.8 | 8.0 | 0.00 | 0.00 | 0.00 | 41 | 992.5 |
| 20260505023916 | 16 | 189 | 4.8 | 11.3 | 0.00 | 0.00 | 0.00 | 40 | 992.7 |
| 20260505023413 | 17 | 179 | 8.0 | 11.3 | 0.00 | 0.00 | 0.00 | 40 | 992.4 |
| 20260505022910 | 17 | 185 | 4.8 | 8.0 | 0.00 | 0.00 | 0.00 | 39 | 992.6 |
| 20260505022408 | 17 | 195 | 1.6 | 3.2 | 0.00 | 0.00 | 0.00 | 39 | 992.6 |
| 20260505021905 | 17 | 194 | 1.6 | 3.2 | 0.00 | 0.00 | 0.00 | 39 | 992.6 |
| 20260505021401 | 17 | 210 | 4.8 | 4.8 | 0.00 | 0.00 | 0.00 | 39 | 992.5 |
| 20260505020857 | 17 | 177 | 4.8 | 8.0 | 0.00 | 0.00 | 0.00 | 39 | 992.5 |
| 20260505020353 | 17 | 201 | 3.2 | 4.8 | 0.00 | 0.00 | 0.00 | 39 | 992.1 |
| 20260505015850 | 17 | 214 | 4.8 | 8.0 | 0.00 | 0.00 | 0.00 | 39 | 992.2 |
| 20260505015347 | 17 | 180 | 4.8 | 8.0 | 0.00 | 0.00 | 0.00 | 38 | 992.1 |
| 20260505014844 | 18 | 211 | 4.8 | 8.0 | 0.00 | 0.00 | 0.00 | 38 | 992.4 |
| 20260505014341 | 18 | 194 | 4.8 | 8.0 | 0.00 | 0.00 | 0.00 | 37 | 992.1 |
| 20260505013838 | 20 | 196 | 3.2 | 3.2 | 0.00 | 0.00 | 0.00 | 30 | 992.5 |
| 20260505013335 | 20 | 183 | 1.6 | 3.2 | 0.00 | 0.00 | 0.00 | 30 | 992.2 |
| 20260505012833 | 21 | 186 | 6.4 | 8.0 | 0.00 | 0.00 | 0.00 | 29 | 992.4 |
| 20260505012331 | 21 | 151 | 1.6 | 3.2 | 0.00 | 0.00 | 0.00 | 29 | 992.2 |
| 20260505011826 | 20 | 187 | 0.0 | 0.0 | 0.00 | 0.00 | 0.00 | 30 | 992.2 |
| 20260505011323 | 20 | 184 | 1.6 | 1.6 | 0.00 | 0.00 | 0.00 | 30 | 992.2 |
| 20260505010819 | 20 | 187 | 1.6 | 1.6 | 0.00 | 0.00 | 0.00 | 30 | 992.5 |
| 20260505010315 | 20 | 186 | 0.0 | 0.0 | 0.00 | 0.00 | 0.00 | 29 | 992.5 |
| 20260505005812 | 20 | 185 | 0.0 | 0.0 | 0.00 | 0.00 | 0.00 | 30 | 992.7 |
| 20260505005309 | 20 | 185 | 0.0 | 0.0 | 0.00 | 0.00 | 0.00 | 30 | 992.6 |
| 20260505004806 | 20 | 185 | 0.0 | 1.6 | 0.00 | 0.00 | 0.00 | 30 | 992.5 |
| 20260505004302 | 20 | 186 | 0.0 | 0.0 | 0.00 | 0.00 | 0.00 | 31 | 992.6 |
| 20260505003800 | 20 | 185 | 0.0 | 1.6 | 0.00 | 0.00 | 0.00 | 32 | 992.6 |
| 20260505003257 | 20 | 187 | 0.0 | 1.6 | 0.00 | 0.00 | 0.00 | 32 | 992.5 |
| 20260505002753 | 20 | 185 | 1.6 | 3.2 | 0.00 | 0.00 | 0.00 | 31 | 992.6 |
| 20260505002251 | 20 | 186 | 0.0 | 0.0 | 0.00 | 0.00 | 0.00 | 32 | 992.7 |
| 20260505001748 | 20 | 185 | 1.6 | 1.6 | 0.00 | 0.00 | 0.00 | 31 | 992.7 |
| 20260505001245 | 21 | 187 | 0.0 | 0.0 | 0.00 | 0.00 | 0.00 | 31 | 992.7 |
| 20260505000742 | 21 | 190 | 0.0 | 0.0 | 0.00 | 0.00 | 0.00 | 30 | 992.7 |
| 20260505000240 | 21 | 187 | 1.6 | 1.6 | 0.00 | 0.00 | 0.00 | 30 | 992.8 |
| 20260504235736 | 21 | 186 | 0.0 | 0.0 | 0.00 | 0.00 | 0.00 | 31 | 992.7 |
| 20260504235233 | 21 | 252 | 3.2 | 8.0 | 0.00 | 0.00 | 0.00 | 30 | 992.7 |
| 20260504234730 | 21 | 187 | 0.0 | 0.0 | 0.00 | 0.00 | 0.00 | 28 | 992.8 |
| 20260504234227 | 21 | 192 | 3.2 | 3.2 | 0.00 | 0.00 | 0.00 | 27 | 992.8 |
| 20260504233724 | 20 | 187 | 1.6 | 1.6 | 0.00 | 0.00 | 0.00 | 30 | 992.7 |
| 20260504233219 | 20 | 181 | 4.8 | 4.8 | 0.00 | 0.00 | 0.00 | 30 | 992.8 |
| 20260504232717 | 20 | 187 | 3.2 | 3.2 | 0.00 | 0.00 | 0.00 | 32 | 993.2 |
| 20260504232214 | 20 | 187 | 1.6 | 1.6 | 0.00 | 0.00 | 0.00 | 33 | 993.3 |
| 20260504231710 | 20 | 184 | 0.0 | 0.0 | 0.00 | 0.00 | 0.00 | 33 | 993.3 |
| 20260504231207 | 20 | 195 | 3.2 | 8.0 | 0.00 | 0.00 | 0.00 | 33 | 993.5 |
| 20260504230703 | 20 | 173 | 4.8 | 4.8 | 0.00 | 0.00 | 0.00 | 33 | 993.2 |
| 20260504230202 | 21 | 193 | 1.6 | 3.2 | 0.00 | 0.00 | 0.00 | 32 | 993.4 |
| 20260504225700 | 22 | 189 | 3.2 | 4.8 | 0.00 | 0.00 | 0.00 | 30 | 993.2 |
| 20260504225155 | 23 | 185 | 0.0 | 1.6 | 0.00 | 0.00 | 0.00 | 24 | 992.9 |
| 20260504224653 | 22 | 188 | 0.0 | 0.0 | 0.00 | 0.00 | 0.00 | 26 | 992.9 |
| 20260504224149 | 21 | 187 | 0.0 | 0.0 | 0.00 | 0.00 | 0.00 | 27 | 993.0 |
| 20260504223647 | 21 | 257 | 3.2 | 3.2 | 0.00 | 0.00 | 0.00 | 28 | 992.9 |
| 20260504223142 | 20 | 343 | 4.8 | 8.0 | 0.00 | 0.00 | 0.00 | 29 | 992.9 |
| 20260504222639 | 20 | 325 | 8.0 | 9.7 | 0.00 | 0.00 | 0.00 | 29 | 992.8 |
| 20260504222136 | 20 | 233 | 6.4 | 8.0 | 0.00 | 0.00 | 0.00 | 29 | 992.9 |
| 20260504221634 | 20 | 296 | 4.8 | 4.8 | 0.00 | 0.00 | 0.00 | 29 | 992.9 |
| 20260504221131 | 21 | 91 | 8.0 | 9.7 | 0.00 | 0.00 | 0.00 | 28 | 993.0 |
| 20260504220627 | 21 | 184 | 3.2 | 3.2 | 0.00 | 0.00 | 0.00 | 28 | 992.9 |
| 20260504220125 | 21 | 193 | 0.0 | 1.6 | 0.00 | 0.00 | 0.00 | 28 | 993.2 |
| 20260504215621 | 20 | 158 | 1.6 | 1.6 | 0.00 | 0.00 | 0.00 | 29 | 992.9 |
| 20260504215118 | 20 | 165 | 1.6 | 1.6 | 0.00 | 0.00 | 0.00 | 30 | 993.2 |
| 20260504214614 | 20 | 181 | 3.2 | 3.2 | 0.00 | 0.00 | 0.00 | 31 | 993.3 |
| 20260504214110 | 19 | 180 | 3.2 | 4.8 | 0.00 | 0.00 | 0.00 | 32 | 993.4 |
| 20260504213607 | 18 | 212 | 4.8 | 4.8 | 0.00 | 0.00 | 0.00 | 33 | 993.4 |
| 20260504213104 | 18 | 180 | 4.8 | 8.0 | 0.00 | 0.00 | 0.00 | 35 | 993.5 |
| 20260504212600 | 18 | 188 | 1.6 | 3.2 | 0.00 | 0.00 | 0.00 | 35 | 993.3 |
| 20260504212057 | 17 | 180 | 3.2 | 4.8 | 0.00 | 0.00 | 0.00 | 37 | 993.3 |
| 20260504211554 | 18 | 148 | 8.0 | 12.9 | 0.00 | 0.00 | 0.00 | 38 | 993.5 |
| 20260504211051 | 18 | 207 | 4.8 | 9.7 | 0.00 | 0.00 | 0.00 | 37 | 993.6 |
| 20260504210548 | 18 | 164 | 4.8 | 8.0 | 0.00 | 0.00 | 0.00 | 37 | 993.6 |
| 20260504210045 | 18 | 171 | 1.6 | 3.2 | 0.00 | 0.00 | 0.00 | 36 | 993.8 |
| 20260504205543 | 18 | 185 | 4.8 | 4.8 | 0.00 | 0.00 | 0.00 | 36 | 993.8 |
| 20260504205040 | 20 | 184 | 1.6 | 1.6 | 0.00 | 0.00 | 0.00 | 28 | 993.6 |
| 20260504204538 | 20 | 159 | 3.2 | 3.2 | 0.00 | 0.00 | 0.00 | 28 | 993.5 |
| 20260504204037 | 20 | 183 | 1.6 | 3.2 | 0.00 | 0.00 | 0.00 | 29 | 993.6 |
| 20260504203535 | 19 | 335 | 4.8 | 4.8 | 0.00 | 0.00 | 0.00 | 30 | 993.4 |
| 20260504203032 | 19 | 148 | 1.6 | 3.2 | 0.00 | 0.00 | 0.00 | 31 | 993.6 |
| 20260504202527 | 20 | 169 | 3.2 | 4.8 | 0.00 | 0.00 | 0.00 | 32 | 993.8 |
| 20260504202024 | 20 | 180 | 6.4 | 9.7 | 0.00 | 0.00 | 0.00 | 32 | 993.6 |
| 20260504201521 | 20 | 169 | 1.6 | 3.2 | 0.00 | 0.00 | 0.00 | 31 | 993.6 |
| 20260504201019 | 20 | 196 | 6.4 | 9.7 | 0.00 | 0.00 | 0.00 | 30 | 993.6 |
| 20260504200515 | 21 | 187 | 1.6 | 1.6 | 0.00 | 0.00 | 0.00 | 29 | 993.6 |
| 20260504200012 | 21 | 156 | 0.0 | 1.6 | 0.00 | 0.00 | 0.00 | 29 | 993.6 |
| 20260504195508 | 20 | 185 | 0.0 | 0.0 | 0.00 | 0.00 | 0.00 | 29 | 993.5 |
| 20260504195005 | 20 | 186 | 1.6 | 1.6 | 0.00 | 0.00 | 0.00 | 30 | 993.7 |
| 20260504194501 | 20 | 183 | 0.0 | 1.6 | 0.00 | 0.00 | 0.00 | 29 | 993.7 |
| 20260504193957 | 21 | 186 | 0.0 | 0.0 | 0.00 | 0.00 | 0.00 | 29 | 993.7 |
| 20260504193454 | 21 | 186 | 0.0 | 0.0 | 0.00 | 0.00 | 0.00 | 29 | 994.0 |
| 20260504192953 | 21 | 193 | 1.6 | 1.6 | 0.00 | 0.00 | 0.00 | 29 | 993.8 |
| 20260504192449 | 21 | 184 | 1.6 | 3.2 | 0.00 | 0.00 | 0.00 | 29 | 993.8 |
| 20260504191949 | 21 | 185 | 1.6 | 1.6 | 0.00 | 0.00 | 0.00 | 29 | 994.0 |
| 20260504191446 | 21 | 186 | 0.0 | 0.0 | 0.00 | 0.00 | 0.00 | 29 | 993.8 |
| 20260504190941 | 21 | 201 | 0.0 | 1.6 | 0.00 | 0.00 | 0.00 | 29 | 994.0 |
| 20260504190437 | 21 | 185 | 0.0 | 0.0 | 0.00 | 0.00 | 0.00 | 29 | 994.0 |
| 20260504185934 | 21 | 179 | 0.0 | 1.6 | 0.00 | 0.00 | 0.00 | 29 | 994.2 |
| 20260504185432 | 21 | 185 | 0.0 | 0.0 | 0.00 | 0.00 | 0.00 | 29 | 994.2 |
| 20260504184927 | 21 | 187 | 1.6 | 1.6 | 0.00 | 0.00 | 0.00 | 29 | 994.1 |
| 20260504184423 | 21 | 180 | 1.6 | 1.6 | 0.00 | 0.00 | 0.00 | 29 | 994.4 |
| 20260504183919 | 21 | 186 | 0.0 | 1.6 | 0.00 | 0.00 | 0.00 | 29 | 994.3 |
| 20260504183417 | 21 | 197 | 0.0 | 1.6 | 0.00 | 0.00 | 0.00 | 29 | 994.3 |
| 20260504182915 | 21 | 185 | 3.2 | 3.2 | 0.00 | 0.00 | 0.00 | 30 | 994.3 |
| 20260504182411 | 21 | 187 | 0.0 | 1.6 | 0.00 | 0.00 | 0.00 | 30 | 994.4 |
| 20260504181908 | 21 | 197 | 4.8 | 8.0 | 0.00 | 0.00 | 0.00 | 30 | 994.5 |
| 20260504181405 | 21 | 209 | 4.8 | 4.8 | 0.00 | 0.00 | 0.00 | 31 | 994.5 |
| 20260504180904 | 20 | 175 | 0.0 | 1.6 | 0.00 | 0.00 | 0.00 | 31 | 994.5 |
| 20260504180402 | 21 | 181 | 3.2 | 4.8 | 0.00 | 0.00 | 0.00 | 31 | 994.4 |
| 20260504175900 | 20 | 187 | 1.6 | 3.2 | 0.00 | 0.00 | 0.00 | 31 | 994.6 |
| 20260504175356 | 21 | 184 | 1.6 | 4.8 | 0.00 | 0.00 | 0.00 | 31 | 994.6 |
| 20260504174855 | 21 | 166 | 4.8 | 8.0 | 0.00 | 0.00 | 0.00 | 31 | 994.6 |
| 20260504174352 | 21 | 163 | 3.2 | 4.8 | 0.00 | 0.00 | 0.00 | 31 | 994.8 |
| 20260504173849 | 21 | 167 | 1.6 | 4.8 | 0.00 | 0.00 | 0.00 | 30 | 994.9 |
| 20260504173345 | 21 | 188 | 4.8 | 8.0 | 0.00 | 0.00 | 0.00 | 31 | 994.9 |
| 20260504172842 | 20 | 166 | 4.8 | 8.0 | 0.00 | 0.00 | 0.00 | 32 | 994.9 |
| 20260504172339 | 21 | 179 | 4.8 | 8.0 | 0.00 | 0.00 | 0.00 | 32 | 995.0 |
| 20260504171835 | 21 | 187 | 3.2 | 4.8 | 0.00 | 0.00 | 0.00 | 31 | 995.0 |
| 20260504171332 | 20 | 230 | 4.8 | 8.0 | 0.00 | 0.00 | 0.00 | 32 | 994.9 |
| 20260504170830 | 20 | 161 | 8.0 | 11.3 | 0.00 | 0.00 | 0.00 | 32 | 995.1 |
| 20260504170326 | 20 | 196 | 3.2 | 4.8 | 0.00 | 0.00 | 0.00 | 32 | 995.0 |
| 20260504160244 | 18 | 193 | 1.6 | 3.2 | 0.00 | 0.00 | 0.00 | 35 | 995.2 |
| 20260504150710 | 17 | 188 | 3.2 | 3.2 | 0.00 | 0.00 | 0.00 | 40 | 995.6 |
| 20260504150207 | 16 | 201 | 3.2 | 4.8 | 0.00 | 0.00 | 0.00 | 40 | 995.7 |